Date String (YYYY-MM-DD hh:mm:ss) UTC,Instrument flags,absolute air pressure of the measurement (hPa),sample flow rate (lpm),inlet stack bypass flow (lpm),air temperature of the measurement (°C),ambient temperature measured by the external sensor (°C),aerosol sample conditioner tube jacket temperature (°C),OPC LED temperature (°C),internal box temperature (°C),relative humidity of the measurement (%),span deviation,mass concentration of particles derived from Lorenz-Mie calculation of OPC scattering (μg/m³),mass concentration of particles derived from Lorenz-Mie calculation of OPC scattering (μg/m³),mass concentration of particles derived from Lorenz-Mie calculation of OPC scattering (μg/m³)
DateTimeUTC,F1_M11,P_M11,Q1_M11,Q2_M11,T1_M11,T2_M11,T3_M11,T4_M11,T5_M11,U1_M11,ZSPAN_M11,X0_M11,X2_M11,X1_M11
2023-11-30 19:00:00,SystemResetWarning,0823.2,4.99,000.00,020.6,019.8,000.0,028.9,021.8,11.9,0000.0,0009.18,0005.52,0005.02
2023-11-30 19:01:00,SystemResetWarning,0823.0,5.01,000.00,020.6,019.8,000.0,028.9,021.9,12.0,0000.0,0009.31,0005.57,0005.07
2023-11-30 19:02:00,SystemResetWarning,0822.9,5.01,000.00,020.6,019.8,000.0,028.9,021.8,11.8,0000.0,0009.43,0005.63,0005.10
2023-11-30 19:03:00,SystemResetWarning,0822.9,4.99,000.00,020.6,019.8,000.0,028.9,021.8,11.9,0000.0,0009.40,0005.65,0005.12
2023-11-30 19:04:00,SystemResetWarning,0822.9,4.99,000.00,020.6,019.8,000.0,028.9,021.8,11.8,0000.0,0009.34,0005.64,0005.14
2023-11-30 19:05:00,SystemResetWarning,0823.0,5.00,000.00,020.6,019.8,000.0,028.9,021.8,11.8,0000.0,0009.38,0005.69,0005.17
2023-11-30 19:06:00,SystemResetWarning,0822.8,4.99,000.00,020.6,019.8,000.0,028.9,021.9,11.9,0000.0,0009.28,0005.69,0005.18
2023-11-30 19:07:00,SystemResetWarning,0823.0,5.00,000.00,020.6,019.8,000.0,028.9,021.9,12.1,0000.0,0009.38,0005.69,0005.18
2023-11-30 19:08:00,SystemResetWarning,0823.2,5.00,000.00,020.6,019.8,000.0,028.9,021.8,11.9,0000.0,0009.36,0005.70,0005.19
2023-11-30 19:09:00,SystemResetWarning,0823.2,5.01,000.00,020.6,019.8,000.0,028.9,021.8,11.9,0000.0,0009.47,0005.70,0005.19
2023-11-30 19:10:00,SystemResetWarning,0822.9,5.01,000.00,020.6,019.8,000.0,028.9,021.8,11.7,0000.0,0009.76,0005.72,0005.19
2023-11-30 19:11:00,SystemResetWarning,0822.8,5.01,000.00,020.6,019.8,000.0,028.9,021.8,11.8,0000.0,0009.94,0005.71,0005.20
2023-11-30 19:12:00,SystemResetWarning,0822.8,4.98,000.00,020.6,019.8,000.0,028.9,021.8,12.0,0000.0,0010.50,0005.72,0005.22
2023-11-30 19:13:00,SystemResetWarning,0822.8,4.99,000.00,020.6,019.8,000.0,028.9,021.8,12.1,0000.0,0010.36,0005.70,0005.22
2023-11-30 19:14:00,SystemResetWarning,0822.7,5.01,000.00,020.6,019.8,000.0,028.9,021.8,12.0,0000.0,0010.40,0005.70,0005.23
2023-11-30 19:15:00,SystemResetWarning,0822.8,5.01,000.00,020.6,019.8,000.0,028.9,021.8,12.0,0000.0,0010.45,0005.72,0005.23
2023-11-30 19:16:00,SystemResetWarning,0822.8,5.00,000.00,020.6,019.8,000.0,028.9,021.8,11.8,0000.0,0010.42,0005.72,0005.23
2023-11-30 19:17:00,SystemResetWarning,0822.7,5.00,000.00,020.6,019.7,000.0,028.9,021.8,12.0,0000.0,0010.46,0005.74,0005.23
2023-11-30 19:18:00,SystemResetWarning,0822.7,5.00,000.00,020.6,019.7,000.0,028.9,021.8,11.9,0000.0,0010.42,0005.75,0005.22
2023-11-30 19:19:00,SystemResetWarning,0822.7,4.99,000.00,020.6,019.7,000.0,028.9,021.8,11.9,0000.0,0010.36,0005.73,0005.22
2023-11-30 19:20:00,SystemResetWarning,0822.8,5.01,000.00,020.6,019.7,000.0,028.9,021.8,12.3,0000.0,0010.22,0005.73,0005.24
2023-11-30 19:21:00,SystemResetWarning,0822.7,5.00,000.00,020.6,019.7,000.0,028.9,021.8,12.0,0000.0,0010.08,0005.74,0005.25
2023-11-30 19:22:00,SystemResetWarning,0822.6,5.01,000.00,020.6,019.7,000.0,028.9,021.9,11.7,0000.0,0009.84,0005.74,0005.27
2023-11-30 19:23:00,SystemResetWarning,0822.7,5.00,000.00,020.6,019.7,000.0,028.9,021.9,11.7,0000.0,0009.45,0005.74,0005.27
2023-11-30 19:24:00,SystemResetWarning,0822.5,5.00,000.00,020.6,019.7,000.0,028.9,021.9,11.9,0000.0,0010.31,0005.78,0005.28
2023-11-30 19:25:00,SystemResetWarning,0822.6,5.00,000.00,020.6,019.7,000.0,028.9,021.9,11.9,0000.0,0010.67,0005.80,0005.28
2023-11-30 19:26:00,SystemResetWarning,0822.6,4.99,000.00,020.6,019.7,000.0,028.9,021.9,11.6,0000.0,0011.20,0005.80,0005.27
2023-11-30 19:27:00,SystemResetWarning,0822.7,5.00,000.00,020.6,019.8,000.0,028.9,021.9,11.9,0000.0,0011.64,0005.80,0005.25
2023-11-30 19:28:00,SystemResetWarning,0822.8,4.99,000.00,020.6,019.8,000.0,028.9,021.9,11.9,0000.0,0011.66,0005.75,0005.23
2023-11-30 19:29:00,SystemResetWarning,0823.0,5.01,000.00,020.6,019.8,000.0,028.9,021.9,12.2,0000.0,0011.57,0005.71,0005.23
2023-11-30 19:30:00,SystemResetWarning,0823.1,5.01,000.00,020.6,019.8,000.0,028.9,021.9,11.9,0000.0,0011.54,0005.68,0005.23
2023-11-30 19:31:00,SystemResetWarning,0823.0,4.99,000.00,020.6,019.8,000.0,028.9,021.9,11.8,0000.0,0011.50,0005.66,0005.21
2023-11-30 19:32:00,SystemResetWarning,0822.9,4.99,000.00,020.7,019.9,000.0,028.9,022.0,12.3,0000.0,0011.15,0005.65,0005.18
2023-11-30 19:33:00,SystemResetWarning,0822.7,5.00,000.00,020.7,019.9,000.0,028.9,022.0,12.1,0000.0,0011.14,0005.66,0005.15
2023-11-30 19:34:00,SystemResetWarning,0822.7,5.00,000.00,020.7,019.9,000.0,028.9,022.0,11.9,0000.0,0011.00,0005.63,0005.13
2023-11-30 19:35:00,SystemResetWarning,0822.9,5.00,000.00,020.7,019.9,000.0,029.0,022.0,11.9,0000.0,0010.39,0005.58,0005.11
2023-11-30 19:36:00,SystemResetWarning,0822.7,5.00,000.00,020.7,019.9,000.0,029.0,022.0,11.9,0000.0,0009.96,0005.56,0005.11
2023-11-30 19:37:00,SystemResetWarning,0822.7,5.00,000.00,020.7,020.0,000.0,029.0,022.1,11.9,0000.0,0009.61,0005.55,0005.11
2023-11-30 19:38:00,SystemResetWarning,0822.6,4.98,000.00,020.8,020.0,000.0,029.0,022.1,11.7,0000.0,0009.26,0005.55,0005.12
2023-11-30 19:39:00,SystemResetWarning,0822.4,4.99,000.00,020.8,020.0,000.0,029.0,022.1,11.7,0000.0,0009.21,0005.58,0005.13
2023-11-30 19:40:00,SystemResetWarning,0822.6,5.01,000.00,020.8,020.0,000.0,029.0,022.1,11.6,0000.0,0009.24,0005.59,0005.13
2023-11-30 19:41:00,SystemResetWarning,0822.4,5.00,000.00,020.8,020.0,000.0,029.0,022.1,11.7,0000.0,0009.26,0005.62,0005.13
2023-11-30 19:42:00,SystemResetWarning,0822.4,5.00,000.00,020.8,020.0,000.0,029.0,022.1,11.7,0000.0,0009.35,0005.63,0005.12
2023-11-30 19:43:00,SystemResetWarning,0822.5,4.99,000.00,020.8,020.0,000.0,029.0,022.1,11.7,0000.0,0009.49,0005.63,0005.13
2023-11-30 19:44:00,SystemResetWarning,0822.4,5.00,000.00,020.8,020.0,000.0,029.0,022.1,11.8,0000.0,0009.84,0005.62,0005.15
2023-11-30 19:45:00,SystemResetWarning,0822.4,5.00,000.00,020.8,020.0,000.0,029.0,022.1,11.7,0000.0,0009.67,0005.61,0005.15
2023-11-30 19:46:00,SystemResetWarning,0822.4,5.00,000.00,020.8,020.0,000.0,029.0,022.1,11.9,0000.0,0009.43,0005.60,0005.15
2023-11-30 19:47:00,SystemResetWarning,0822.4,5.01,000.00,020.8,020.1,000.0,029.1,022.1,11.9,0000.0,0009.58,0005.59,0005.14
2023-11-30 19:48:00,SystemResetWarning,0822.3,5.00,000.00,020.8,020.1,000.0,029.1,022.1,11.9,0000.0,0009.52,0005.59,0005.14
2023-11-30 19:49:00,SystemResetWarning,0822.4,5.01,000.00,020.9,020.1,000.0,029.1,022.2,12.0,0000.0,0009.51,0005.60,0005.14
2023-11-30 19:50:00,SystemResetWarning,0822.4,5.00,000.00,020.9,020.1,000.0,029.1,022.1,11.9,0000.0,0009.62,0005.61,0005.14
2023-11-30 19:51:00,SystemResetWarning,0822.4,5.00,000.00,020.9,020.1,000.0,029.1,022.2,11.8,0000.0,0010.36,0005.64,0005.14
2023-11-30 19:52:00,SystemResetWarning,0822.4,4.99,000.00,020.9,020.1,000.0,029.1,022.2,11.9,0000.0,0010.57,0005.64,0005.14
2023-11-30 19:53:00,SystemResetWarning,0822.4,5.00,000.00,020.9,020.1,000.0,029.1,022.2,12.0,0000.0,0010.99,0005.64,0005.14
2023-11-30 19:54:00,SystemResetWarning,0822.4,4.99,000.00,020.9,020.1,000.0,029.1,022.2,12.1,0000.0,0011.27,0005.63,0005.13
2023-11-30 19:55:00,SystemResetWarning,0822.3,5.00,000.00,020.9,020.1,000.0,029.1,022.2,12.2,0000.0,0010.84,0005.61,0005.11
2023-11-30 19:56:00,SystemResetWarning,0822.3,5.02,000.00,020.9,020.1,000.0,029.1,022.2,12.0,0000.0,0010.90,0005.63,0005.10
2023-11-30 19:57:00,SystemResetWarning,0822.2,5.00,000.00,020.9,020.1,000.0,029.1,022.2,12.1,0000.0,0010.99,0005.65,0005.09
2023-11-30 19:58:00,SystemResetWarning,0822.3,4.99,000.00,020.9,020.1,000.0,029.1,022.2,12.1,0000.0,0010.85,0005.65,0005.09
2023-11-30 19:59:00,SystemResetWarning,0822.2,5.00,000.00,020.9,020.1,000.0,029.1,022.2,12.1,0000.0,0010.75,0005.62,0005.07
